Flag for Poland Weather past 2 weeks in Chorzów, Poland

Now
70 °F

Sunny.


Feels Like: 70 °F
Forecast: 64 / 79 °F
Wind: 6 mph from Southeast

Location: Katowice Airport

Current Time: Jul 29, 2014 at 9:54:51 PM

Latest Report: Jul 29, 2014 at 9:30 PM


Visibility: 10 mi

Pressure: 29.80 "Hg

Humidity: 78%

Dew point: 63 °F

Location of ChorzówLocation

Historic Weather in Chorzów — Graph

°F

Chorzów temperature yesterday

Maximum temperature yesterday: 84 °F (at 2:00 PM)
Minimum temperature yesterday: 63 °F (at 3:30 AM)
Average temperature yesterday: 72 °F

Past Weeks' High & Low Weather Summary

 TemperatureHumidityPressure
High88 °F (Jul 20, 3:00 PM)100% (Jul 15, 2:30 AM)30.15 "Hg (Jul 15, 2:30 AM)
Low55 °F (Jul 15, 4:00 AM)33% (Jul 20, 4:00 PM)29.77 "Hg (Jul 29, 7:30 PM)
Average71 °F72%29.98 "Hg
* Reported Jul 14 9:00 PM — Jul 29 9:00 PM, Chorzów, Weather by CustomWeather, © 2014

Note: Actual official high and low records may vary slightly from our data, if they occured in-between our weather recording intervals... More about our weather records

Advertising

Chorzów weather history for previous 24 hours

 ConditionsComfort  
Time TempWeatherWind HumidityBarometerVisibility
9:00 PM
Jul 29
70 °FPassing clouds.5 mph83%29.80 "HgN/A
8:30 PM72 °FPassing clouds.5 mph83%29.77 "HgN/A
8:00 PM72 °FPassing clouds.5 mph83%29.77 "HgN/A
7:30 PM72 °FScattered clouds.3 mph88%29.77 "HgN/A
7:00 PM75 °FScattered clouds.1 mph61%29.80 "HgN/A
6:30 PM75 °FScattered clouds.3 mph65%29.80 "HgN/A
6:00 PM75 °FThundershowers. Scattered clouds.7 mph61%29.80 "HgN/A
5:30 PM75 °FThunderstorms. Partly sunny.13 mph74%29.80 "HgN/A
5:00 PM81 °FThundershowers. Scattered clouds.10 mph54%29.80 "HgN/A
4:30 PM82 °FScattered clouds.7 mph48%29.80 "HgN/A
4:00 PM82 °FScattered clouds.8 mph48%29.80 "HgN/A
3:30 PM82 °FScattered clouds.6 mph48%29.80 "HgN/A
3:00 PM82 °FScattered clouds.7 mph45%29.80 "HgN/A
2:30 PM82 °FScattered clouds.5 mph48%29.83 "HgN/A
2:00 PM82 °FPassing clouds.7 mph45%29.83 "HgN/A
1:30 PM82 °FPassing clouds.3 mph42%29.83 "HgN/A
1:00 PM81 °FPassing clouds.6 mph48%29.83 "HgN/A
12:30 PM81 °FPassing clouds.5 mph48%29.86 "HgN/A
12:00 PM79 °FPassing clouds.6 mph58%29.86 "HgN/A
11:30 AM79 °FSunny.6 mph58%29.86 "Hg10 mi
11:00 AM77 °FPassing clouds.6 mph57%29.86 "HgN/A
10:30 AM77 °FPassing clouds.6 mph65%29.86 "HgN/A
10:00 AM77 °FPassing clouds.6 mph61%29.86 "HgN/A
9:30 AM75 °FPassing clouds.5 mph65%29.86 "HgN/A
9:00 AM73 °FSunny.3 mph65%29.86 "Hg10 mi
8:30 AM72 °FSunny.3 mph78%29.86 "Hg10 mi
8:00 AM70 °FPassing clouds.3 mph83%29.86 "HgN/A
7:30 AM66 °FPassing clouds.3 mph88%29.86 "HgN/A
7:00 AM64 °FClear.5 mph94%29.86 "Hg4 mi
6:30 AM61 °FFog.1 mph94%29.86 "Hg2 mi
6:00 AM59 °FFog.1 mph94%29.86 "Hg1 mi
5:30 AM59 °FFog.5 mph100%29.86 "Hg1 mi
5:00 AM59 °FFog.3 mph100%29.86 "Hg2 mi
4:30 AM59 °FFog.2 mph100%29.86 "Hg2 mi
4:00 AM61 °FFog.No wind100%29.86 "Hg2 mi
3:30 AM61 °FFog.1 mph100%29.86 "Hg2 mi
3:00 AM61 °FFog.3 mph94%29.86 "Hg2 mi
2:30 AM63 °FFog.2 mph94%29.86 "Hg2 mi
2:00 AM64 °FClear.5 mph94%29.86 "Hg4 mi
1:30 AM63 °FClear.5 mph94%29.86 "Hg10 mi
1:00 AM66 °FClear.5 mph83%29.86 "Hg10 mi
12:30 AM66 °FClear.5 mph83%29.86 "Hg10 mi
12:00 AM66 °FClear.2 mph88%29.86 "Hg10 mi
11:30 PM
Jul 28
66 °FClear.No wind88%29.86 "Hg10 mi
11:00 PM66 °FClear.3 mph88%29.89 "Hg10 mi
10:30 PM68 °FPassing clouds.3 mph83%29.89 "HgN/A
10:00 PM70 °FClear.5 mph83%29.89 "Hg10 mi
9:30 PM68 °FSunny.3 mph88%29.89 "Hg10 mi
9:00 PM68 °FSunny.6 mph83%29.89 "Hg10 mi
Weather by CustomWeather, © 2014

See weather overviewHow to use our weather pages